N0DBM Weather Reports


time (UTC)temp
C
wind
direction
speed
KPH
gust
KPH
rain 1hr
cm
rain 24hr
cm
rain mn
cm
humidity
%
barometer
mb
20260508002504 17 190 6.4 17.7 0.00 0.00 0.00 49 1010.7
20260508002007 17 190 6.4 16.1 0.00 0.00 0.00 49 1010.7
20260508001516 17 190 8.0 16.1 0.00 0.00 0.00 48 1010.8
20260508001004 18 190 3.2 19.3 0.00 0.00 0.00 49 1010.8
20260508000507 18 190 9.7 20.9 0.00 0.00 0.00 47 1010.8
20260508000016 18 190 8.0 20.9 0.00 0.00 0.00 47 1010.9
20260507235504 18 190 8.0 17.7 0.00 0.00 0.00 46 1010.9
20260507235003 18 190 6.4 20.9 0.00 0.00 0.00 46 1010.9
20260507234515 18 190 9.7 20.9 0.00 0.00 0.00 46 1010.9
20260507234003 18 190 9.7 22.5 0.00 0.00 0.00 46 1010.9
20260507233507 18 190 9.7 22.5 0.00 0.00 0.00 45 1011.0
20260507233017 18 190 6.4 17.7 0.00 0.00 0.00 46 1011.1
20260507232506 18 190 8.0 17.7 0.00 0.00 0.00 45 1011.0
20260507232004 18 190 9.7 24.1 0.00 0.00 0.00 45 1011.1
20260507231518 18 190 9.7 24.1 0.00 0.00 0.00 45 1011.1
20260507231004 18 190 12.9 22.5 0.00 0.00 0.00 44 1011.2
20260507230502 19 190 8.0 22.5 0.00 0.00 0.00 45 1011.3
20260507230016 19 190 6.4 24.1 0.00 0.00 0.00 45 1011.2
20260507225510 19 190 6.4 24.1 0.00 0.00 0.00 45 1011.3
20260507225007 18 190 9.7 19.3 0.00 0.00 0.00 45 1011.3
20260507224519 18 190 8.0 19.3 0.00 0.00 0.00 46 1011.5
20260507224005 18 190 8.0 20.9 0.00 0.00 0.00 45 1011.5
20260507223504 18 190 11.3 27.4 0.00 0.00 0.00 44 1011.6
20260507223007 19 190 11.3 27.4 0.00 0.00 0.00 43 1011.6
20260507222501 18 190 6.4 25.7 0.00 0.00 0.00 45 1011.7
20260507222004 18 190 8.0 25.7 0.00 0.00 0.00 44 1011.7
20260507221511 18 190 12.9 24.1 0.00 0.00 0.00 43 1011.5
20260507221003 18 190 11.3 24.1 0.00 0.00 0.00 44 1011.5
20260507220506 18 190 8.0 22.5 0.00 0.00 0.00 45 1011.5
20260507220017 18 190 11.3 22.5 0.00 0.00 0.00 44 1011.6
20260507215507 18 190 11.3 22.5 0.00 0.00 0.00 45 1011.6
20260507215003 18 190 8.0 20.9 0.00 0.00 0.00 45 1011.7
20260507214504 18 190 8.0 30.6 0.00 0.00 0.00 44 1011.7
20260507214002 18 190 11.3 30.6 0.00 0.00 0.00 43 1011.6
20260507213504 18 190 8.0 22.5 0.00 0.00 0.00 46 1011.6
20260507213004 18 190 11.3 22.5 0.00 0.00 0.00 45 1011.5
20260507212502 18 190 8.0 22.5 0.00 0.00 0.00 46 1011.7
20260507212002 18 190 9.7 25.7 0.00 0.00 0.00 44 1011.7
20260507211508 18 190 11.3 25.7 0.00 0.00 0.00 43 1011.7
20260507211003 18 190 11.3 27.4 0.00 0.00 0.00 42 1011.7
20260507210507 18 190 8.0 29.0 0.00 0.00 0.00 45 1011.7
20260507210016 18 190 14.5 29.0 0.00 0.00 0.00 43 1011.7
20260507205506 18 190 11.3 27.4 0.00 0.00 0.00 44 1011.9
20260507205009 18 190 11.3 29.0 0.00 0.00 0.00 45 1011.8
20260507204519 18 190 14.5 33.8 0.00 0.00 0.00 44 1011.9
20260507204006 18 190 11.3 33.8 0.00 0.00 0.00 43 1011.9
20260507203503 18 190 12.9 20.9 0.00 0.00 0.00 43 1011.9
20260507203004 18 190 6.4 19.3 0.00 0.00 0.00 44 1012.0
20260507202502 18 190 6.4 25.7 0.00 0.00 0.00 45 1012.1
20260507202002 18 190 12.9 25.7 0.00 0.00 0.00 44 1012.2
20260507201508 18 190 9.7 29.0 0.00 0.00 0.00 46 1012.2
20260507201003 18 190 12.9 29.0 0.00 0.00 0.00 44 1012.4
20260507200505 18 190 6.4 22.5 0.00 0.00 0.00 48 1012.5
20260507200013 18 190 9.7 25.7 0.00 0.00 0.00 47 1012.5
20260507195503 18 190 12.9 30.6 0.00 0.00 0.00 46 1012.5
20260507195003 18 190 12.9 30.6 0.00 0.00 0.00 46 1012.6
20260507194519 18 190 6.4 22.5 0.00 0.00 0.00 47 1012.6
20260507194007 18 190 11.3 22.5 0.00 0.00 0.00 44 1012.8
20260507193506 18 190 9.7 22.5 0.00 0.00 0.00 45 1012.9
20260507193028 18 190 6.4 20.9 0.00 0.00 0.00 45 1013.1
20260507192508 18 190 6.4 20.9 0.00 0.00 0.00 47 1013.0
20260507192003 17 190 6.4 20.9 0.00 0.00 0.00 47 1013.1
20260507191505 17 190 11.3 20.9 0.00 0.00 0.00 46 1013.2
20260507191002 17 190 6.4 20.9 0.00 0.00 0.00 47 1013.1
20260507190503 17 190 11.3 20.9 0.00 0.00 0.00 46 1013.2
20260507190008 17 190 4.8 25.7 0.00 0.00 0.00 48 1013.1
20260507185502 17 190 12.9 25.7 0.00 0.00 0.00 46 1013.2
20260507185003 17 190 9.7 25.7 0.00 0.00 0.00 46 1013.1
20260507184512 17 190 9.7 20.9 0.00 0.00 0.00 46 1013.1
20260507184004 17 190 6.4 20.9 0.00 0.00 0.00 46 1013.2
20260507183503 17 190 6.4 17.7 0.00 0.00 0.00 47 1013.3
20260507183032 17 190 6.4 19.3 0.00 0.00 0.00 43 1013.3
20260507182508 18 190 11.3 24.1 0.00 0.00 0.00 46 1013.5
20260507182008 18 190 9.7 24.1 0.00 0.00 0.00 45 1013.5
20260507181521 18 190 6.4 29.0 0.00 0.00 0.00 45 1013.6
20260507181009 18 190 6.4 29.0 0.00 0.00 0.00 46 1013.7
20260507180502 18 190 12.9 29.0 0.00 0.00 0.00 46 1013.7
20260507180004 18 190 3.2 17.7 0.00 0.00 0.00 46 1013.7
20260507175503 17 190 8.0 24.1 0.00 0.00 0.00 45 1013.8
20260507175003 17 190 12.9 24.1 0.00 0.00 0.00 45 1013.8
20260507174513 17 190 8.0 25.7 0.00 0.00 0.00 46 1013.9
20260507174002 17 190 9.7 25.7 0.00 0.00 0.00 47 1014.0
20260507173503 17 190 11.3 25.7 0.00 0.00 0.00 49 1014.0
20260507173014 17 190 8.0 20.9 0.00 0.00 0.00 49 1014.2
20260507172507 17 190 8.0 20.9 0.00 0.00 0.00 47 1014.1
20260507172007 17 190 6.4 27.4 0.00 0.00 0.00 48 1014.2
20260507171528 16 190 14.5 27.4 0.00 0.00 0.00 48 1014.3
20260507171007 16 190 11.3 27.4 0.00 0.00 0.00 49 1014.6
20260507170507 16 190 12.9 32.2 0.00 0.00 0.00 50 1014.3
20260507170024 16 190 9.7 32.2 0.00 0.00 0.00 50 1014.6
20260507165507 16 190 9.7 27.4 0.00 0.00 0.00 51 1014.7
20260507165003 16 190 12.9 29.0 0.00 0.00 0.00 49 1014.5
20260507164509 16 190 12.9 29.0 0.00 0.00 0.00 50 1014.7
20260507164004 16 190 8.0 25.7 0.00 0.00 0.00 52 1014.6
20260507163508 16 190 9.7 25.7 0.00 0.00 0.00 51 1014.7
20260507163011 16 190 12.9 25.7 0.00 0.00 0.00 51 1014.9
20260507162504 16 190 9.7 22.5 0.00 0.00 0.00 52 1014.9
20260507162006 15 190 9.7 24.1 0.00 0.00 0.00 52 1014.9
20260507161518 16 190 9.7 32.2 0.00 0.00 0.00 52 1015.0
20260507161004 16 190 14.5 32.2 0.00 0.00 0.00 51 1015.0
20260507160506 16 190 11.3 20.9 0.00 0.00 0.00 51 1014.9
20260507160030 16 190 11.3 25.7 0.00 0.00 0.00 50 1014.9
20260507155510 16 190 11.3 25.7 0.00 0.00 0.00 51 1014.9
20260507155010 16 190 9.7 25.7 0.00 0.00 0.00 51 1014.9
20260507154523 15 190 9.7 25.7 0.00 0.00 0.00 52 1014.9
20260507154010 15 190 11.3 24.1 0.00 0.00 0.00 52 1015.0
20260507153504 15 190 8.0 24.1 0.00 0.00 0.00 52 1015.0
20260507153011 15 190 8.0 20.9 0.00 0.00 0.00 53 1015.0
20260507152503 15 190 4.8 12.9 0.00 0.00 0.00 52 1015.1
20260507152004 15 190 6.4 17.7 0.00 0.00 0.00 55 1015.2
20260507151515 15 190 4.8 19.3 0.00 0.00 0.00 56 1015.1
20260507151003 15 190 9.7 25.7 0.00 0.00 0.00 55 1015.1
20260507150510 14 190 12.9 25.7 0.00 0.00 0.00 56 1015.4
20260507150018 14 190 11.3 25.7 0.00 0.00 0.00 58 1015.3
20260507145508 14 190 9.7 19.3 0.00 0.00 0.00 56 1015.2
20260507145005 14 190 6.4 19.3 0.00 0.00 0.00 57 1015.1
20260507144522 14 190 9.7 17.7 0.00 0.00 0.00 57 1015.3
20260507144007 13 190 9.7 20.9 0.00 0.00 0.00 56 1015.2
20260507143508 13 190 6.4 20.9 0.00 0.00 0.00 57 1015.3
20260507143038 13 190 9.7 20.9 0.00 0.00 0.00 58 1015.3
20260507142509 13 190 6.4 20.9 0.00 0.00 0.00 57 1015.4
20260507142003 13 190 8.0 20.9 0.00 0.00 0.00 57 1015.4
20260507141512 12 190 8.0 20.9 0.00 0.00 0.00 58 1015.5
20260507141004 12 190 11.3 27.4 0.00 0.00 0.00 57 1015.5
20260507140504 12 190 6.4 27.4 0.00 0.00 0.00 58 1015.6
20260507140019 12 190 6.4 22.5 0.00 0.00 0.00 58 1015.6
20260507135504 12 190 9.7 22.5 0.00 0.00 0.00 57 1015.7
20260507135007 12 190 8.0 19.3 0.00 0.00 0.00 57 1015.7
20260507134520 12 190 11.3 19.3 0.00 0.00 0.00 56 1015.8
20260507134007 11 190 8.0 19.3 0.00 0.00 0.00 56 1015.8
20260507133502 11 190 11.3 19.3 0.00 0.00 0.00 55 1015.8
20260507133003 11 190 6.4 16.1 0.00 0.00 0.00 57 1015.9
20260507132503 11 190 8.0 16.1 0.00 0.00 0.00 57 1015.9
20260507132002 10 190 3.2 16.1 0.00 0.00 0.00 60 1015.9
20260507131510 10 190 8.0 16.1 0.00 0.00 0.00 61 1015.9
20260507131004 10 190 4.8 11.3 0.00 0.00 0.00 63 1016.0
20260507130503 9 190 4.8 9.7 0.00 0.00 0.00 64 1015.9
20260507130029 9 190 4.8 14.5 0.00 0.00 0.00 65 1016.0
20260507125509 8 190 8.0 14.5 0.00 0.00 0.00 65 1016.0
20260507125007 8 190 6.4 16.1 0.00 0.00 0.00 66 1016.0
20260507124517 8 190 4.8 16.1 0.00 0.00 0.00 66 1016.0
20260507124007 8 190 6.4 12.9 0.00 0.00 0.00 67 1016.0
20260507123507 7 190 6.4 11.3 0.00 0.00 0.00 67 1016.0
20260507123022 7 190 4.8 12.9 0.00 0.00 0.00 68 1016.0
20260507122506 7 190 4.8 12.9 0.00 0.00 0.00 69 1016.0
20260507122003 7 190 3.2 12.9 0.00 0.00 0.00 69 1016.0
20260507121504 7 190 3.2 12.9 0.00 0.00 0.00 69 1015.9
20260507121003 7 190 4.8 12.9 0.00 0.00 0.00 69 1015.9
20260507120502 6 190 3.2 14.5 0.00 0.00 0.00 69 1015.9
20260507120008 6 190 6.4 14.5 0.00 0.00 0.00 69 1015.8
20260507115504 6 190 4.8 11.3 0.00 0.00 0.00 70 1015.9
20260507115003 6 190 3.2 11.3 0.00 0.00 0.00 70 1015.8
20260507114520 6 190 3.2 11.3 0.00 0.00 0.00 71 1015.8
20260507114004 6 190 3.2 9.7 0.00 0.00 0.00 72 1015.8
20260507113506 5 190 3.2 9.7 0.00 0.00 0.00 72 1015.8
20260507113017 5 190 3.2 9.7 0.00 0.00 0.00 72 1015.7
20260507112507 5 190 1.6 9.7 0.00 0.00 0.00 72 1015.8
20260507112009 5 190 3.2 9.7 0.00 0.00 0.00 72 1015.8
20260507111522 5 190 3.2 8.0 0.00 0.00 0.00 72 1015.8
20260507111006 5 190 0.0 6.4 0.00 0.00 0.00 72 1015.9
20260507110504 6 190 1.6 6.4 0.00 0.00 0.00 72 1015.9
20260507110007 6 190 3.2 9.7 0.00 0.00 0.00 71 1015.9
20260507105504 6 190 1.6 9.7 0.00 0.00 0.00 71 1015.9
20260507105003 6 190 3.2 9.7 0.00 0.00 0.00 70 1016.0
20260507104512 6 190 3.2 9.7 0.00 0.00 0.00 70 1016.0
20260507104004 6 190 3.2 9.7 0.00 0.00 0.00 69 1016.0
20260507103503 6 190 4.8 9.7 0.00 0.00 0.00 68 1016.0
20260507103014 6 190 3.2 11.3 0.00 0.00 0.00 67 1016.0
20260507102504 6 190 1.6 14.5 0.00 0.00 0.00 67 1016.0
20260507102006 6 190 3.2 14.5 0.00 0.00 0.00 66 1015.9
20260507101522 6 190 4.8 11.3 0.00 0.00 0.00 67 1015.9
20260507101005 6 190 3.2 12.9 0.00 0.00 0.00 66 1015.9
20260507100507 6 190 4.8 12.9 0.00 0.00 0.00 66 1015.9
20260507100032 6 190 3.2 9.7 0.00 0.00 0.00 67 1015.9
20260507095507 6 190 3.2 9.7 0.00 0.00 0.00 67 1015.9
20260507095009 6 190 3.2 8.0 0.00 0.00 0.00 68 1016.0
20260507094506 6 190 3.2 6.4 0.00 0.00 0.00 69 1015.9
20260507094006 6 190 3.2 6.4 0.00 0.00 0.00 69 1015.9
20260507093503 6 190 1.6 6.4 0.00 0.00 0.00 69 1016.0
20260507093012 6 190 1.6 6.4 0.00 0.00 0.00 69 1016.0
20260507092504 6 190 3.2 6.4 0.00 0.00 0.00 69 1016.1
20260507092008 6 190 1.6 6.4 0.00 0.00 0.00 69 1016.1
20260507091519 6 190 1.6 6.4 0.00 0.00 0.00 69 1016.1
20260507091009 6 190 1.6 4.8 0.00 0.00 0.00 69 1016.1
20260507090507 6 190 1.6 6.4 0.00 0.00 0.00 70 1016.0
20260507090020 6 190 1.6 6.4 0.00 0.00 0.00 69 1016.1
20260507085505 6 190 1.6 3.2 0.00 0.00 0.00 70 1016.2
20260507085007 6 190 0.0 3.2 0.00 0.00 0.00 69 1016.2
20260507084525 6 190 0.0 4.8 0.00 0.00 0.00 69 1016.1
20260507084010 6 190 1.6 4.8 0.00 0.00 0.00 69 1016.2
20260507083510 6 190 1.6 3.2 0.00 0.00 0.00 69 1016.3
20260507083008 6 190 0.0 3.2 0.00 0.00 0.00 69 1016.3
20260507082501 6 190 0.0 3.2 0.00 0.00 0.00 68 1016.3
20260507082004 6 190 0.0 3.2 0.00 0.00 0.00 68 1016.3
20260507081513 6 190 0.0 3.2 0.00 0.00 0.00 68 1016.4
20260507081007 6 190 1.6 3.2 0.00 0.00 0.00 68 1016.4
20260507080506 6 190 0.0 6.4 0.00 0.00 0.00 67 1016.4
20260507080016 6 190 0.0 6.4 0.00 0.00 0.00 66 1016.4
20260507075509 6 190 1.6 4.8 0.00 0.00 0.00 66 1016.4
20260507075008 6 190 0.0 6.4 0.00 0.00 0.00 66 1016.4
20260507074524 6 190 1.6 6.4 0.00 0.00 0.00 66 1016.5
20260507074009 6 190 0.0 1.6 0.00 0.00 0.00 66 1016.5
20260507073507 6 190 0.0 1.6 0.00 0.00 0.00 67 1016.6
20260507073030 6 190 0.0 4.8 0.00 0.00 0.00 67 1016.6
20260507072508 6 190 1.6 4.8 0.00 0.00 0.00 67 1016.7
20260507072007 6 190 0.0 0.0 0.00 0.00 0.00 68 1016.7
20260507071516 6 190 0.0 0.0 0.00 0.00 0.00 68 1016.7
20260507071006 6 190 0.0 0.0 0.00 0.00 0.00 68 1016.8
20260507070506 6 190 0.0 0.0 0.00 0.00 0.00 67 1017.0
20260507070016 7 190 0.0 0.0 0.00 0.00 0.00 67 1017.0
20260507065507 7 190 0.0 0.0 0.00 0.00 0.00 66 1016.8
20260507065004 7 190 0.0 0.0 0.00 0.00 0.00 63 1016.9
20260507064531 7 190 0.0 0.0 0.00 0.00 0.00 65 1017.0
20260507064007 6 190 0.0 0.0 0.00 0.00 0.00 64 1017.0
20260507063508 6 190 0.0 0.0 0.00 0.00 0.00 67 1017.1
20260507063022 6 190 0.0 0.0 0.00 0.00 0.00 72 1017.1
20260507062512 6 190 0.0 0.0 0.00 0.00 0.00 75 1017.1
20260507062011 6 190 0.0 0.0 0.00 0.00 0.00 74 1017.1
20260507061529 6 190 0.0 0.0 0.00 0.00 0.00 72 1017.2
20260507061009 6 190 0.0 0.0 0.00 0.00 0.00 74 1017.2
20260507060506 6 190 0.0 0.0 0.00 0.00 0.00 74 1017.1
20260507060012 6 190 0.0 0.0 0.00 0.00 0.00 75 1017.1
20260507055503 6 190 0.0 0.0 0.00 0.00 0.00 74 1017.2
20260507055007 6 190 0.0 0.0 0.00 0.00 0.00 73 1017.2
20260507054516 6 190 0.0 0.0 0.00 0.00 0.00 72 1017.2
20260507054008 7 190 0.0 0.0 0.00 0.00 0.00 67 1017.2
20260507053507 7 190 0.0 0.0 0.00 0.00 0.00 60 1017.3
20260507053020 6 190 0.0 0.0 0.00 0.00 0.00 60 1017.4
20260507052506 6 190 0.0 0.0 0.00 0.00 0.00 62 1017.3
20260507052010 6 190 0.0 0.0 0.00 0.00 0.00 68 1017.4
20260507051524 5 190 0.0 0.0 0.00 0.00 0.00 70 1017.4
20260507051006 5 190 0.0 0.0 0.00 0.00 0.00 73 1017.3
20260507050509 6 190 0.0 0.0 0.00 0.00 0.00 72 1017.4
20260507050038 6 190 0.0 0.0 0.00 0.00 0.00 70 1017.3
20260507045512 6 190 0.0 0.0 0.00 0.00 0.00 67 1017.3
20260507045008 6 190 0.0 0.0 0.00 0.00 0.00 65 1017.3
20260507044527 6 190 0.0 0.0 0.00 0.00 0.00 66 1017.4
20260507044004 6 190 0.0 0.0 0.00 0.00 0.00 67 1017.4
20260507043506 6 190 0.0 0.0 0.00 0.00 0.00 66 1017.4
20260507043016 6 190 0.0 0.0 0.00 0.00 0.00 66 1017.4
20260507042507 5 190 0.0 0.0 0.00 0.00 0.00 70 1017.4
20260507042007 5 190 0.0 0.0 0.00 0.00 0.00 72 1017.3
20260507041526 6 190 0.0 0.0 0.00 0.00 0.00 72 1017.4
20260507041006 6 190 0.0 0.0 0.00 0.00 0.00 71 1017.4
20260507040509 6 190 0.0 0.0 0.00 0.00 0.00 70 1017.4
20260507040026 6 190 0.0 0.0 0.00 0.00 0.00 70 1017.4
20260507035504 6 190 0.0 0.0 0.00 0.00 0.00 68 1017.4
20260507035004 6 190 0.0 0.0 0.00 0.00 0.00 68 1017.4
20260507034512 6 190 0.0 0.0 0.00 0.00 0.00 66 1017.4
20260507034004 6 190 0.0 0.0 0.00 0.00 0.00 64 1017.4
20260507033504 7 190 0.0 0.0 0.00 0.00 0.00 63 1017.4
20260507033014 7 190 0.0 0.0 0.00 0.00 0.00 59 1017.5
20260507032507 7 190 0.0 0.0 0.00 0.00 0.00 60 1017.4
20260507032007 7 190 0.0 0.0 0.00 0.00 0.00 64 1017.5
20260507031521 7 190 0.0 0.0 0.00 0.00 0.00 63 1017.5
20260507031007 7 190 0.0 0.0 0.00 0.00 0.00 63 1017.5
20260507030516 7 190 0.0 0.0 0.00 0.00 0.00 61 1017.4
20260507030029 7 190 0.0 0.0 0.00 0.00 0.00 61 1017.4
20260507025507 7 190 0.0 0.0 0.00 0.00 0.00 60 1017.4
20260507025010 7 190 0.0 0.0 0.00 0.00 0.00 59 1017.4
20260507024528 7 190 0.0 0.0 0.00 0.00 0.00 60 1017.4
20260507024002 8 190 0.0 0.0 0.00 0.00 0.00 57 1017.3
20260507023504 8 190 0.0 0.0 0.00 0.00 0.00 57 1017.3
20260507023010 8 190 0.0 0.0 0.00 0.00 0.00 53 1017.4
20260507022503 8 190 0.0 0.0 0.00 0.00 0.00 55 1017.3
20260507022004 8 190 0.0 0.0 0.00 0.00 0.00 53 1017.2
20260507021516 8 190 0.0 0.0 0.00 0.00 0.00 52 1017.2
20260507021006 8 190 0.0 0.0 0.00 0.00 0.00 52 1017.1
20260507020509 8 190 0.0 0.0 0.00 0.00 0.00 51 1017.1
20260507020020 9 190 0.0 0.0 0.00 0.00 0.00 50 1017.1
20260507015508 9 190 0.0 0.0 0.00 0.00 0.00 49 1017.0
20260507015013 10 190 0.0 0.0 0.00 0.00 0.00 48 1016.9
20260507014524 10 190 0.0 0.0 0.00 0.00 0.00 47 1016.8
20260507014008 10 190 0.0 0.0 0.00 0.00 0.00 44 1016.8
20260507013507 11 190 0.0 0.0 0.00 0.00 0.00 44 1016.8
20260507013027 11 190 0.0 0.0 0.00 0.00 0.00 44 1016.7
20260507012503 11 190 0.0 1.6 0.00 0.00 0.00 42 1016.7
20260507012004 11 190 0.0 3.2 0.00 0.00 0.00 42 1016.7
20260507011513 11 190 0.0 3.2 0.00 0.00 0.00 41 1016.7
20260507011003 11 190 1.6 8.0 0.00 0.00 0.00 41 1016.7
20260507010504 11 190 3.2 8.0 0.00 0.00 0.00 41 1016.7
20260507010023 12 190 0.0 6.4 0.00 0.00 0.00 41 1016.6
20260507005504 12 190 3.2 8.0 0.00 0.00 0.00 40 1016.6
20260507005009 12 190 0.0 8.0 0.00 0.00 0.00 41 1016.6
20260507004523 12 190 3.2 8.0 0.00 0.00 0.00 40 1016.6
20260507004010 12 190 4.8 9.7 0.00 0.00 0.00 40 1016.6
20260507003512 12 190 6.4 9.7 0.00 0.00 0.00 39 1016.6
20260507003024 12 190 4.8 11.3 0.00 0.00 0.00 39 1016.5